Flag for U.S.A. Weather past 2 weeks in New City, New York, U.S.A.

Now
73 °F

Broken clouds.


Feels Like: 73 °F
Forecast: 67 / 86 °F
Wind: 5 mph from North

Location: Westchester County Airport

Current Time: May 28, 2015 at 11:18:59 AM

Latest Report: May 28, 2015 at 10:56 AM


Visibility: 3 mi

Pressure: 30.16 "Hg

Humidity: 81%

Dew point: 67 °F

Location of New CityLocation

Historic Weather in New City — Graph

°F

New City temperature yesterday

Maximum temperature yesterday: 80 °F (at 1:56 PM)
Minimum temperature yesterday: 62 °F (at 4:56 AM)
Average temperature yesterday: 70 °F

Past Weeks' High & Low Weather Summary

 TemperatureHumidityPressure
High83 °F (May 26, 12:56 PM)100% (May 16, 8:02 AM)30.41 "Hg (May 16, 8:02 AM)
Low42 °F (May 23, 5:56 AM)19% (May 14, 4:56 PM)29.76 "Hg (May 19, 6:56 PM)
Average62 °F65%30.12 "Hg
* Reported May 13 9:56 AM — May 28 9:56 AM, New City, Weather by CustomWeather, © 2015

Note: Actual official high and low records may vary slightly from our data, if they occured in-between our weather recording intervals... More about our weather records

Advertising

New City weather history for previous 24 hours

 ConditionsComfort  
Time TempWeatherWind HumidityBarometerVisibility
9:56 AM
Thu, May 28
69 °FFog.No wind87%30.16 "Hg2 mi
8:56 AM67 °FFog.5 mph90%30.16 "Hg2 mi
7:56 AM66 °FFog.5 mph93%30.15 "Hg3 mi
6:56 AM64 °FFog.3 mph97%30.15 "Hg4 mi
5:56 AM64 °FFog.No wind97%30.14 "Hg4 mi
4:56 AM63 °FFog.No wind97%30.12 "Hg4 mi
3:56 AM62 °FFog.No wind96%30.11 "Hg2 mi
2:56 AM63 °FFog.3 mph97%30.11 "Hg3 mi
1:56 AM64 °FFog.No wind94%30.12 "Hg6 mi
12:56 AM64 °FFog.No wind90%30.12 "Hg6 mi
11:56 PM
Wed, May 27
64 °FFog.No wind94%30.13 "Hg5 mi
10:56 PM64 °FFog.6 mph97%30.14 "Hg4 mi
9:56 PM65 °FLight rain. Fog.7 mph94%30.14 "Hg4 mi
8:56 PM66 °FLight rain. Fog.3 mph93%30.13 "Hg3 mi
7:56 PM67 °FFog.7 mph90%30.13 "Hg5 mi
6:56 PM71 °FThunderstorms. Partly sunny.8 mph76%30.13 "Hg9 mi
5:56 PM74 °FPartly sunny.9 mph74%30.07 "Hg10 mi
4:56 PM76 °FPassing clouds.13 mph69%30.09 "Hg10 mi
3:56 PM78 °FScattered clouds.13 mph66%30.10 "Hg9 mi
2:56 PM80 °FSunny.14 mph64%30.10 "Hg9 mi
1:56 PM80 °FScattered clouds.12 mph64%30.13 "Hg8 mi
12:56 PM78 °FPartly sunny.13 mph69%30.14 "Hg7 mi
11:56 AM76 °FPartly sunny.10 mph74%30.16 "Hg7 mi
Weather by CustomWeather, © 2015

See weather overviewHow to use our weather pages